Weather History for Cajamarca, Peru

Change the Weather History Date:

Wednesday, February 20, 2013

  Actual Average Record
Temperature  
Mean Temperature 54 °F -  
Max Temperature 71 °F - - ()
Min Temperature 37 °F - - ()
Degree Days  
Heating Degree Days 11    
Growing Degree Days 4 (Base 50)    
Moisture  
Dew Point 51 °F    
Average Humidity 71    
Maximum Humidity 100    
Minimum Humidity 40    
Precipitation  
Precipitation 0.00 in - - ()
Sea Level Pressure  
Sea Level Pressure 30.28 in    
Wind  
Wind Speed 3 mph ()    
Max Wind Speed 12 mph    
Max Gust Speed -    
Visibility 6.1 miles    
Events Fog    
T = Trace of Precipitation, MM = Missing Value Source: Averaged Metar Reports

Daily Weather History Graph

Daily Weather History Graph

Search for Another Location

Airport:

Trip Planner

Search our weather history database for the weather conditions in past years. The results will help you decide how hot, cold, wet, or windy it might be!

Date:

Astronomy

Feb. 20, 2013 Rise Set
Actual Time 6:18 AM PET 6:36 PM PET
Civil Twilight 5:57 AM PET 6:57 PM PET
Nautical Twilight 5:32 AM PET 7:22 PM PET
Astronomical Twilight 5:07 AM PET 7:47 PM PET
Moon 2:39 PM PET (2/20) 1:53 AM PET (2/20)
Length of Visible Light 13h 00m
Length of Day
12h 17m
Waxing Gibbous, 76% of the Moon is Illuminated
Feb 20
Waxing Gibbous
Feb 25
Full
Mar 4
Last Quarter
Mar 11
New
Mar 19
First Quarter

Hourly Weather History & Observations

Time (PET) Temp. Dew Point Humidity Pressure Visibility Wind Dir Wind Speed Gust Speed Precip Events Conditions
4:00 AM 47 °F 47 °F 98%  in 5 mi Calm Calm - - Fog Patches of Fog
4:00 AM 46.4 °F 46.4 °F 100% 30.27 in 5.0 mi Calm Calm - N/A Fog Patches of Fog
5:00 AM 46.4 °F 46.4 °F 100% 30.27 in 5.0 mi Calm Calm - N/A Fog Patches of Fog
6:00 AM 46.4 °F 46.4 °F 100% 30.30 in 6.2 mi Calm Calm - N/A   Partly Cloudy
6:30 AM 46.4 °F 46.4 °F 100% 30.30 in 6.2 mi Variable 2.3 mph - N/A   Scattered Clouds
7:00 AM 47 °F 47 °F 98%  in 6 mi Calm Calm - -   Partly Cloudy
7:00 AM 46.4 °F 46.4 °F 100% 30.33 in 6.2 mi Calm Calm - N/A   Scattered Clouds
7:30 AM 48.2 °F 46.4 °F 93% 30.33 in 6.2 mi Variable 1.2 mph - N/A Fog Scattered Clouds
8:00 AM 51.8 °F 48.2 °F 88% 30.36 in 6.2 mi Variable 1.2 mph - N/A Fog Scattered Clouds
8:30 AM 57.2 °F 50.0 °F 77% 30.36 in 6.2 mi Variable 2.3 mph - N/A Fog Partly Cloudy
9:00 AM 60.8 °F 51.8 °F 72% 30.36 in 6.2 mi Variable 1.2 mph - N/A Fog Partly Cloudy
9:30 AM 62.6 °F 53.6 °F 72% 30.33 in 6.2 mi South 3.5 mph - N/A Fog Partly Cloudy
10:00 AM 64.4 °F 53.6 °F 68% 30.33 in 6.2 mi SSE 4.6 mph - N/A Fog Partly Cloudy
10:30 AM 66.2 °F 55.4 °F 68% 30.33 in 6.2 mi South 4.6 mph - N/A   Partly Cloudy
11:00 AM 66.2 °F 55.4 °F 68% 30.33 in 6.2 mi South 6.9 mph - N/A   Scattered Clouds
11:30 AM 68.0 °F 51.8 °F 56% 30.30 in 6.2 mi NE 10.4 mph - N/A   Scattered Clouds
12:00 PM 69.8 °F 53.6 °F 56% 30.30 in 6.2 mi ENE 9.2 mph - N/A   Scattered Clouds
12:30 PM 68.0 °F 53.6 °F 60% 30.30 in 6.2 mi East 6.9 mph - N/A   Mostly Cloudy
1:00 PM 69 °F 50 °F 40%  in 6 mi East 6.9 mph - -   Partly Cloudy
1:00 PM 68.0 °F 50.0 °F 52% 30.27 in 6.2 mi Variable 6.9 mph - N/A   Mostly Cloudy
1:30 PM - - N/A% - 6.2 mi ENE 8.1 mph - N/A   Mostly Cloudy
2:00 PM 68.0 °F 51.8 °F 56% 30.24 in 6.2 mi NE 8.1 mph - N/A   Mostly Cloudy
2:30 PM 69.8 °F 51.8 °F 53% 30.24 in 6.2 mi NE 11.5 mph - N/A   Mostly Cloudy
3:00 PM 69.8 °F 51.8 °F 53% 30.21 in 6.2 mi NE 5.8 mph - N/A   Scattered Clouds
3:30 PM 69.8 °F 51.8 °F 53% 30.18 in 6.2 mi NNE 5.8 mph - N/A   Scattered Clouds
4:00 PM 71 °F 52 °F 41%  in 6 mi NW 2.3 mph - -   Partly Cloudy
4:00 PM 71.6 °F 51.8 °F 50% 30.18 in 6.2 mi Variable 2.3 mph - N/A   Scattered Clouds
4:30 PM 69.8 °F 50.0 °F 49% 30.15 in 6.2 mi SE 11.5 mph - N/A   Mostly Cloudy
5:00 PM 68.0 °F 51.8 °F 56% 30.27 in 6.2 mi SSE 11.5 mph - N/A   Mostly Cloudy
5:30 PM 64.4 °F 53.6 °F 68% 30.18 in 6.2 mi SSE 6.9 mph - N/A   Mostly Cloudy
6:00 PM 64.4 °F 55.4 °F 73% 30.18 in 6.2 mi South 9.2 mph - N/A   Mostly Cloudy